Regional Weather Roundup
Issued by NWS

Home | Current Version | Previous Version | Text Only | Print | Product List | Glossary Off
Versions: 1 2 3 4 5 6 7 8 9 10 11 12 13 14 15 16 17 18 19 20 21 22 23 24 25 26 27 28 29 30 31 32 33 34 35 36 37 38 39 40 41 42 43 44 45 46 47 48 49 50

153
ASUS45 KTFX 252210
RWRMT
MONTANA REGIONAL WEATHER ROUNDUP
NATIONAL WEATHER SERVICE GREAT FALLS MT
400 PM MDT MON JUL 25 2016

NOTE: "FAIR" INDICATES FEW OR NO CLOUDS BELOW 12000 FEET WITH NO
SIGNIFICANT WEATHER AND/OR OBSTRUCTIONS TO VISIBILITY.

MTZ001>007-043-252300-
WEST OF THE DIVIDE

CITY           SKY/WX    TMP DP  RH WIND       PRES   REMARKS
KALISPELL      SUNNY     88  49  25 NE8       30.03F
MISSOULA       SUNNY     91  44  19 MISG      30.02F
BUTTE          LGT RAIN  81  37  20 N9        30.15R
MULLAN PASS    SUNNY     74  41  30 CALM      30.24S
ANACONDA         N/A     82  46  28 N12       30.09F
DEER LODGE       N/A     84  43  23 N7        30.11F
EUREKA           N/A     90  45  20 SE3       30.01F
HAMILTON         N/A     88  46  23 N8        30.04F
LIBBY            N/A     90  43  19 N6        30.00F
PLAINS           N/A     94  46  19 S6        29.99F HX  90
RONAN            N/A     86  50  28 E1        30.09F
$$

MTZ008-052>055-252300-
SOUTHWEST MONTANA

CITY           SKY/WX    TMP DP  RH WIND       PRES   REMARKS
BOZEMAN        SUNNY     90  42  18 N6        30.06F
DILLON         SUNNY     89  30  12 CALM      30.08F
W YELLOWSTONE  SUNNY     84  18   8 W16G26    30.23S
ENNIS          SUNNY     90  30  12 NW9G17    30.14F
THREE FORKS      N/A     91 N/A N/A W6        30.03F
TWIN BRIDGES     N/A     86  39  18 SE5       30.07F
$$

MTZ009-010-012-014-046-048-049-054-252300-
EAST SLOPES AND CENTRAL MONTANA

CITY           SKY/WX    TMP DP  RH WIND       PRES   REMARKS
CUT BANK       MOSUNNY   81  50  33 N9G18     30.11S
GREAT FALLS    SUNNY     89  41  18 VRB6G16   30.05F
MALMSTROM AFB  SUNNY     88  42  20 W9        30.05F
HELENA         SUNNY     91  41  17 E5        30.02F
CHOTEAU          N/A     84  46  26 VRB6G17   30.11F
CONRAD           N/A     85  55  35 NW5       30.11F
$$

MTZ011-013-016-021-045-047-050-051-252300-
NORTH CENTRAL MONTANA

CITY           SKY/WX    TMP DP  RH WIND       PRES   REMARKS
HAVRE          SUNNY     91  47  21 VRB6      29.99F
LEWISTOWN      SUNNY     85  49  28 NE6       30.10S
N BAR RANCH      N/A     86  46  25 NE16      30.11F
CHINOOK          N/A     90  48  24 W3        29.98F
$$

MTZ017>020-022>027-061-062-252300-
NORTHEAST MONTANA

CITY           SKY/WX    TMP DP  RH WIND       PRES   REMARKS
GLASGOW        SUNNY     92  46  20 CALM      29.96F
JORDAN           N/A     94  44  17 NE13      29.96F HX  90
SIDNEY         SUNNY     91  56  30 E8        29.95S
WOLF POINT     SUNNY     95  49  20 MISG      29.96S HX  92
PLENTYWOOD       N/A     90  50  25 NE7       29.98F
POPLAR           N/A     90  48  24 NE6       29.97S
SCOBEY           N/A     89  54  30 NE5       29.99F
$$

MTZ028>42-056>058-252300-
SOUTHCENTRAL AND SOUTHEAST MONTANA

CITY           SKY/WX    TMP DP  RH WIND       PRES   REMARKS
BAKER          SUNNY     96  45  17 VRB7      29.98F HX  92
BILLINGS       MOSUNNY   95  34  11 E6        29.99F HX  90
LIVINGSTON     SUNNY     93  32  11 CALM      30.03F
MILES CITY     SUNNY     99  36  11 NE5       29.93F HX  93
EKALAKA          N/A     96  43  16 NE7       29.98F HX  92
FORSYTH          N/A     97  41  14 N3        29.94F HX  92
LAUREL           N/A     95  36  12 NE8       29.98F HX  90
ROUNDUP          N/A     91  45  20 NE10      29.94F
$$

REGIONAL REPORTS...DAKOTAS

CITY           SKY/WX    TMP DP  RH WIND       PRES   REMARKS
WILLISTON      SUNNY     92  54  27 N12       29.96F HX  90
MINOT          SUNNY     90  63  40 NE6       29.94S HX  91
DICKINSON      SUNNY     92  45  19 VRB3      29.95F
CROSBY           N/A     84  61  45 NE6       30.00S
WATFORD CITY     N/A    N/A N/A N/A MISG        N/A
BISMARCK       SUNNY     93  62  35 W6        29.93S HX  93
GRAND FORKS    MOSUNNY   88  67  49 S8        29.92F HX  91
FARGO          SUNNY     90  59  35 S16       29.94F
BUFFALO SD       N/A     96  42  15 NE8       29.90F HX  92
RAPID CITY     CLOUDY    86  57  37 S10       30.01S
$$

REGIONAL REPORTS...WYOMING/IDAHO/WASHINGTON

CITY           SKY/WX    TMP DP  RH WIND       PRES   REMARKS
GILLETTE       SUNNY     95  33  11 NE10      30.03F HX  90
SHERIDAN       SUNNY     98  34  10 VRB3      29.99F HX  92
BUFFALO WY     SUNNY     95  32  11 SE8G20    30.07F HX  90
CODY           SUNNY     90  36  14 N7        30.08S
YELLOWSTONE LA   N/A     79  20  11 VRB5      30.35S
IDAHO FALLS    SUNNY     93  26   9 S14G21    30.08F
SALMON         CLOUDY    90  43  19 NE5       29.99F
BOISE          SUNNY     97  37  12 NW7       29.96F HX  92
SPOKANE        MOSUNNY   91  44  19 N6        30.02F
$$

REGIONAL REPORTS...ALBERTA

CITY           SKY/WX    TMP DP  RH WIND       PRES   REMARKS
EDMONTON       MOSUNNY   77  50  38 SW7       30.04F
CALGARY        PTSUNNY   72  54  53 SE14      30.09F
LETHBRIDGE     MOSUNNY   77  57  50 VRB3      30.08F
MEDICINE HAT   MOSUNNY   82  57  42 NE8       30.04S
WATERTON GATE    N/A     77  54  44 E7          N/A
MILK RIVER       N/A     81  55  41 N9          N/A
ONEFOUR          N/A     88  41  19 NW6         N/A
$$

REGIONAL REPORTS...SASKATCHEWAN

CITY           SKY/WX    TMP DP  RH WIND       PRES   REMARKS
SWIFT CURRENT  MOSUNNY   77  61  57 N8        30.06R
REGINA         MOSUNNY   82  59  44 NW8       29.99R
SASKATOON      MOSUNNY   79  45  29 NW14G20   30.04R
CYPRESS HILLS    N/A     75  54  46 NE6         N/A
VAL MARIE        N/A     84  55  37 NE13        N/A
ROCKGLEN         N/A     82  57  42 N9          N/A
ASSINIBOIA       N/A     75  50  41 E3          N/A
$$




USA.gov is the U.S. government's official web portal to all federal, state and local government web resources and services.